Home   Weather   Hopkinsville   Past weeks
Flag for USA

Past Weather in Hopkinsville, Kentucky, USA — Yesterday and Last 2 Weeks

Now
36 °F

Light snow. Mostly cloudy.


Feels Like: 26 °F
Forecast: 38 / 31 °F
Wind: 15 mph from Northwest

Location: Fort Campbell U. S. Army Airfield

Current Time: Feb 26, 2020 at 5:14:18 pm

Latest Report: Feb 26, 2020 at 4:25 pm


Visibility: 5 mi

Pressure: 30.10 "Hg

Humidity: 93%

Dew Point: 34 °F

Location of HopkinsvilleLocation

Past Weather in Hopkinsville — Graph

°F

Hopkinsville Temperature Yesterday

Maximum temperature yesterday: 53 °F (at 12:56 am)
Minimum temperature yesterday: 41 °F (at 11:56 pm)
Average temperature yesterday: 49 °F

High & Low Weather Summary for the Past Weeks

 TemperatureHumidityPressure
High68 °F (Feb 17, 3:56 pm)100% (Feb 12, 2:34 am)30.71 "Hg (Feb 12, 2:34 am)
Low15 °F (Feb 14, 5:56 am)19% (Feb 22, 2:56 pm)29.61 "Hg (Feb 24, 10:57 pm)
Average41 °F79%30.14 "Hg
* Reported Feb 11 3:56 pm — Feb 26 3:30 pm, Hopkinsville. Weather by CustomWeather, © 2020

Note: Actual official high and low records may vary slightly from our data, if they occured in-between our weather recording intervals... More about our weather records

Hopkinsville Weather History for the Previous 24 Hours

Scroll right to see more
 ConditionsComfort  
Time TempWeatherWind HumidityBarometerVisibility
3:30 pm
Wed, Feb 26
37 °FLight rain. Mostly cloudy.18 mph81%30.06 "Hg10 mi
3:08 pm37 °FLight rain. Mostly cloudy.15 mph87%30.06 "Hg5 mi
2:41 pm37 °FBroken clouds.17 mph81%30.03 "Hg10 mi
2:26 pm37 °FPartly sunny.14 mph87%30.03 "Hg10 mi
2:11 pm37 °FCloudy.16 mph93%30.03 "Hg10 mi
1:56 pm37 °FDrizzle. Mostly cloudy.16 mph88%30.01 "Hg10 mi
1:33 pm37 °FDrizzle. Mostly cloudy.20 mph87%30.01 "Hg10 mi
1:21 pm37 °FDrizzle. Cloudy.17 mph93%30.01 "Hg10 mi
12:26 pm37 °FOvercast.15 mph87%30.01 "Hg10 mi
12:11 pm37 °FMostly cloudy.17 mph87%30.01 "Hg10 mi
11:56 am38 °FMostly cloudy.17 mph85%30.01 "Hg10 mi
11:26 am39 °FMostly cloudy.14 mph87%30.01 "Hg10 mi
11:11 am37 °FMostly cloudy.15 mph93%30.01 "Hg10 mi
10:56 am38 °FMostly cloudy.14 mph96%30.01 "Hg10 mi
10:37 am37 °FDrizzle. Mostly cloudy.13 mph100%30.01 "Hg10 mi
10:20 am37 °FMostly cloudy.14 mph100%30.01 "Hg10 mi
9:27 am37 °FDrizzle. Overcast.13 mph100%29.99 "Hg10 mi
8:56 am37 °FMostly cloudy.9 mph100%29.99 "Hg10 mi
8:41 am37 °FDrizzle. More clouds than sun.13 mph100%29.99 "Hg10 mi
8:11 am37 °FDrizzle. Mostly cloudy.15 mph100%29.99 "Hg10 mi
7:56 am38 °FDrizzle. Overcast.14 mph100%29.99 "Hg10 mi
7:43 am37 °FDrizzle. Overcast.13 mph100%29.98 "Hg10 mi
6:56 am39 °FLow clouds.15 mph99%29.95 "Hg10 mi
5:56 am39 °FLow clouds.10 mph99%29.94 "Hg10 mi
5:41 am39 °FLow clouds.10 mph100%29.95 "Hg10 mi
4:56 am40 °FOvercast.8 mph98%29.94 "Hg10 mi
4:26 am39 °FLow clouds.10 mph100%29.95 "Hg10 mi
4:11 am39 °FOvercast.8 mph100%29.94 "Hg10 mi
3:56 am40 °FLow clouds.9 mph99%29.94 "Hg10 mi
3:11 am41 °FLow clouds.8 mph100%29.92 "Hg10 mi
2:56 am40 °FMostly cloudy.8 mph99%29.92 "Hg10 mi
1:56 am41 °FLow clouds.10 mph100%29.95 "Hg10 mi
1:26 am41 °FLow clouds.10 mph100%29.96 "Hg10 mi
12:56 am42 °FLow clouds.8 mph100%29.96 "Hg10 mi
12:26 am41 °FLow clouds.9 mph100%29.94 "Hg10 mi
11:56 pm
Tue, Feb 25
41 °FLow clouds.6 mph100%29.94 "Hg9 mi
11:18 pm43 °FLow clouds.5 mph100%29.93 "Hg9 mi
11:03 pm43 °FLow clouds.6 mph100%29.93 "Hg10 mi
9:56 pm44 °FLow clouds.10 mph100%29.94 "Hg10 mi
9:41 pm45 °FLow clouds.9 mph100%29.94 "Hg10 mi
9:11 pm45 °FLow clouds.10 mph100%29.93 "Hg10 mi
8:56 pm44 °FLow clouds.12 mph100%29.93 "Hg10 mi
8:26 pm45 °FLow clouds.10 mph100%29.93 "Hg10 mi
7:56 pm46 °FOvercast.12 mph100%29.93 "Hg10 mi
6:56 pm46 °FMostly cloudy.7 mph100%29.92 "Hg10 mi
5:56 pm47 °FOvercast.8 mph100%29.90 "Hg9 mi
5:17 pm48 °FFog.9 mph100%29.89 "Hg5 mi
5:08 pm48 °FDrizzle. Overcast.9 mph100%29.88 "Hg7 mi
Weather by CustomWeather, © 2020

See weather overview

Advertising